Luke Air Force Base
KLUF : now visible

Airfield :











YOU CAN JOIN US ON...

 
LOGIN :

Register | Disclaimer

   EN    FR    IT 

 









Legend :    VFR   Marginal VFR   IFR   Intensive IFR   Very Intensive IFR
Visi :
Ceiling :
>= 8 km
>= 3000ft
5 to 8 km
1000 to 3000 ft
1500m to 5 km
500 to 1000 ft
800 to 1500m
200 to 500 ft
< 800m
< 200 ft
Symbols :   Thunderstorms  Fog  Heavy snow  Heavy precipitations  Wind > 20 kt






- Airport Elevation : 1085 ft


KLUF - Luke Air Force Base

CURRENT METAR :
  • 130258Z AUTO 26005KT 10SM CLR 27/M01 A2965 RMK AO2 SLP029 T02701010 53006 $

EXPIRED METARs :
  • 130158Z AUTO 26005KT 10SM CLR 30/M01 A2964 RMK AO2 SLP027 T02961007 $
  • 130058Z AUTO 22009KT 10SM CLR 31/M03 A2964 RMK AO2 SLP026 T03131027 $

TAF TAF KLUF
Valid from the 12 at 20:00 until the 14 at 02:00 UTC


122000Z 1220/1402 21010G15KT 9999 SKC QNH2961INS
TEMPO 1220/1221 17010KT
BECMG 1301/1302 VRB06KT 9999 FEW250 QNH2963INS
BECMG 1320/1321 23013G22KT 9999 SCT250 QNH2965INS TX34/1223Z TN14/1313Z
KZAB FIR / North America



MET'MAP, your aeronautical weather chart ! - Copyright ORBIFLY December 2007 - Disclaimer

ORBIFLY MET'MAP TEAM :

Programming & Development : Alexandra Zaïnal
Concept & original design : Baudouin d'Aumeries
Assistance for programming : Marc-Olivier Méhu
Technical & hardware support : Manuel Goepfert

Contact : metmap@orbifly.com




SOURCES & CREDITS :

   NOAA       Earth
Advisory